Location: Unspecified
(0.0000°N, 0.0000°E)
Time: 09:34:04
(UTC+00:00)

X-37B - Visible Passes

Search period start: 16 November 2018 00:00
Search period end: 26 November 2018 00:00
Orbit: 259 x 286 km, 43.2° (Epoch: 06 October)

Date Brightness Start Highest point End Pass type
(mag) Time Alt. Az. Time Alt. Az. Time Alt. Az.
22 Nov 4.4 04:29:18 10° NE 04:29:41 10° NE 04:30:05 10° NE visible
23 Nov 4.4 04:15:01 15° ENE 04:15:01 15° ENE 04:15:52 10° E visible
24 Nov 5.2 04:00:49 11° ESE 04:00:49 11° ESE 04:00:54 10° ESE visible
